Home   Weather   Southend-on-Sea   Past weeks

Flag for United Kingdom Past Weather in Southend-on-Sea, England, United Kingdom — Yesterday and Last 2 Weeks

Now
41 °F

Clear.


Feels Like: 38 °F
Forecast: 33 / 46 °F
Wind: 5 mph from East

Location: Southend Airport-On-Sea

Current Time: Dec 5, 2016 at 12:39:53 pm

Latest Report: Dec 5, 2016 at 12:20 pm


Visibility: 5 mi

Pressure: 30.24 "Hg

Humidity: 87%

Dew Point: 37 °F

Location of Southend-on-SeaLocation

Past Weather in Southend-on-Sea — Graph

°F

Southend-on-Sea Temperature Yesterday

Maximum temperature yesterday: 46 °F (at 11:50 am)
Minimum temperature yesterday: 28 °F (at 11:50 pm)
Average temperature yesterday: 39 °F

High & Low Weather Summary for the Past Weeks

 TemperatureHumidityPressure
High59 °F (Nov 21, 2:20 pm)100% (Nov 21, 12:50 am)30.57 "Hg (Nov 21, 12:50 am)
Low23 °F (Dec 5, 6:50 am)50% (Nov 28, 10:50 am)29.09 "Hg (Nov 20, 11:20 am)
Average43 °F78%30.13 "Hg
* Reported Nov 20 11:20 am — Dec 5 11:20 am, Southend-on-Sea, Weather by CustomWeather, © 2016

Note: Actual official high and low records may vary slightly from our data, if they occured in-between our weather recording intervals... More about our weather records

Advertising

Southend-on-Sea Weather History for the Previous 24 Hours

Scroll right to see more
 ConditionsComfort  
Time TempWeatherWind HumidityBarometerVisibility
11:20 am
Mon, Dec 5
41 °FClear.3 mph81%30.24 "Hg5 mi
10:50 am39 °FClear.No wind87%30.24 "Hg4 mi
9:50 am32 °FClear.No wind93%30.24 "Hg4 mi
9:20 am30 °FPassing clouds.No wind93%30.24 "Hg4 mi
8:50 am28 °FLight fog.No wind86%30.24 "Hg4 mi
8:20 am25 °FPassing clouds.No wind86%30.24 "Hg4 mi
7:50 am27 °FFog.No wind86%30.24 "Hg3 mi
7:20 am27 °FClear.2 mph93%30.24 "Hg4 mi
6:50 am23 °FClear.2 mph93%30.24 "Hg4 mi
6:20 am25 °FClear.3 mph93%30.24 "Hg5 mi
5:50 am27 °FClear.No wind93%30.24 "Hg4 mi
5:20 am27 °FClear.No wind93%30.21 "Hg4 mi
4:50 am27 °FClear.No wind86%30.21 "Hg4 mi
4:20 am27 °FClear.No wind93%30.21 "Hg4 mi
3:50 am27 °FClear.No wind93%30.21 "Hg5 mi
2:50 am27 °FClear.No wind93%30.21 "Hg5 mi
1:50 am28 °FClear.No wind86%30.24 "Hg5 mi
12:50 am27 °FClear.No wind93%30.24 "Hg10 mi
11:50 pm
Sun, Dec 4
28 °FClear.No wind93%30.24 "Hg10 mi
11:20 pm30 °FClear.2 mph86%30.24 "Hg10 mi
10:50 pm30 °FClear.No wind93%30.24 "Hg10 mi
10:20 pm30 °FClear.2 mph86%30.24 "Hg10 mi
9:50 pm32 °FClear.5 mph87%30.24 "Hg10 mi
9:20 pm37 °FClear.6 mph81%30.24 "Hg10 mi
8:50 pm36 °FClear.5 mph93%30.24 "Hg10 mi
8:20 pm36 °FClear.5 mph87%30.24 "Hg10 mi
7:50 pm36 °FClear.5 mph87%30.24 "Hg10 mi
7:20 pm36 °FClear.6 mph81%30.21 "Hg10 mi
6:50 pm37 °FClear.9 mph75%30.24 "Hg10 mi
6:20 pm36 °FClear.5 mph75%30.21 "Hg10 mi
5:50 pm36 °FClear.6 mph70%30.21 "Hg10 mi
5:20 pm37 °FClear.7 mph75%30.21 "Hg10 mi
4:50 pm37 °FClear.6 mph70%30.21 "Hg10 mi
4:20 pm39 °FClear.8 mph70%30.21 "Hg10 mi
3:50 pm41 °FClear.8 mph66%30.21 "Hg10 mi
3:20 pm43 °FSunny.10 mph61%30.21 "Hg10 mi
2:50 pm43 °FSunny.12 mph57%30.21 "Hg10 mi
2:20 pm45 °FSunny.14 mph57%30.21 "Hg10 mi
1:50 pm45 °FSunny.14 mph57%30.21 "Hg10 mi
1:20 pm45 °FSunny.14 mph53%30.21 "Hg10 mi
12:50 pm46 °FSunny.14 mph53%30.24 "Hg10 mi
12:20 pm45 °FSunny.13 mph57%30.24 "Hg10 mi
Weather by CustomWeather, © 2016

See weather overviewHow to use our weather pages